Weather Roundup
Issued by NWS Chicago, IL

Home | Current Version | Previous Version | Graphics & Text | Print | Product List | Glossary On
Versions: 1 2 3 4 5 6 7 8 9 10 11 12 13 14 15 16 17 18 19 20 21 22 23 24 25 26 27 28 29 30 31 32 33 34 35 36 37 38 39 40 41 42 43 44 45 46 47 48 49 50
000
NZUS59 KLOT 031308
HRRLOT

CHICAGO AREA WEATHER ROUNDUP
NATIONAL WEATHER SERVICE CHICAGO/ROMEOVILLE IL
800 AM CDT MON AUG 03 2015

NOTE: "FAIR" INDICATES FEW OR NO CLOUDS BELOW 12,000 FEET WITH NO
SIGNIFICANT WEATHER AND/OR OBSTRUCTIONS TO VISIBILITY.

* THESE STATIONS ARE NOT UNDER NWS QUALITY CONTROL. THEY ALSO MAY NOT
  REPORT WEATHER SUCH AS PRECIPITATION OR FOG.

ILZ005-006-012>014-019>023-031400-
NORTHEAST ILLINOIS

CITY           SKY/WX    TMP DP  RH WIND       PRES   REMARKS
OHARE          MOSUNNY   71  60  68 NW13      29.83R
MIDWAY         MOSUNNY   73  64  73 N9        29.82R
AURORA         SUNNY     71  63  75 N12       29.85R
LANSING*       SUNNY     72  65  80 NW5       29.83R
JOLIET*        SUNNY     74  66  76 N5        29.84R
WAUKEGAN       MOSUNNY   67  60  78 NW7       29.83R
DUPAGE AIRPORT SUNNY     71  61  70 N9        29.84R
WHEELING       NOT AVBL
KANKAKEE*      SUNNY     73  66  77 NW3       29.84R
MORRIS*        SUNNY     72  65  79 NW3       29.83R
LEWIS AIRPORT* SUNNY     70  64  81 N8        29.84R
NORTHERLY IS     N/A     73  61  65 W9          N/A
$$

WIZ051-052-058>065-066-070>072-031400-
SOUTHEAST WISCONSIN

CITY           SKY/WX    TMP DP  RH WIND       PRES   REMARKS
MILWAUKEE      MOSUNNY   69  53  56 NW9       29.83R
KENOSHA*       SUNNY     67  59  75 NW9       29.84R
RACINE*        SUNNY     67  58  72 NW9       29.84R
BURLINGTON     SUNNY     65  57  73 NW9       29.84S
WEST BEND      SUNNY     64  54  68 W7        29.83S
$$

INZ001>003-010>013-019-020-031400-
NORTHWEST INDIANA

CITY           SKY/WX    TMP DP  RH WIND       PRES   REMARKS
GARY*          MOSUNNY   73  66  78 W6        29.83R
MICHIGAN CITY* NOT AVBL
RENSSELAER*    NOT AVBL
VALPARAISO     SUNNY     71  65  81 CALM      29.83R
$$

LMZ740>746-031400-
SOUTHERN LAKE MICHIGAN

STATION/POSITION TIME  SKY/WX   TEMP WIND        PRES    VSBY
                                AIR  DIR/SP/G
                 (UTC)          (F)  (DEG/KT/KT) (MB)    (MI)
HARRISON CRIB    1200            71  300/ 13/ 15   N/A
BURNHAM HARBOR   1300            73  320/  4/ 12   N/A
CALUMET HARBOR   1200            70  270/  1/  5   N/A
BURNS HARBOR     1200            71  180/  3/  7 1010.2R
MICHIGAN CITY    1200            72  260/  7/  9   N/A
$$

ABBREVIATIONS USED IN REMARKS
   TC - TEMPERATURE IN CELSIUS
  WCI - WIND CHILL INDEX
   HX - HEAT INDEX
  VSB - VISIBILITY
$$


USA.gov is the U.S. government's official web portal to all federal, state and local government web resources and services.